TimeEDT,TemperatureF,Dew PointF,Humidity,Sea Level PressureIn,VisibilityMPH,Wind Direction,Wind SpeedMPH,Gust SpeedMPH,PrecipitationIn,Events,Conditions,WindDirDegrees,DateUTC
12:54 AM,63.0,60.1,90,30.03,10.0,East,3.5,-,N/A,,Scattered Clouds,90,2013-07-12 04:54:00
1:54 AM,63.0,59.0,87,30.04,10.0,NE,3.5,-,N/A,,Clear,50,2013-07-12 05:54:00
2:54 AM,61.0,59.0,93,30.06,10.0,Calm,Calm,-,N/A,,Clear,0,2013-07-12 06:54:00
3:54 AM,61.0,57.9,90,30.07,10.0,Calm,Calm,-,N/A,,Clear,0,2013-07-12 07:54:00
4:54 AM,59.0,57.0,93,30.09,10.0,Calm,Calm,-,N/A,,Clear,0,2013-07-12 08:54:00
5:22 AM,59.0,57.2,94,30.10,10.0,Calm,Calm,-,N/A,,Partly Cloudy,0,2013-07-12 09:22:00
5:54 AM,59.0,57.0,93,30.11,10.0,Calm,Calm,-,N/A,,Partly Cloudy,0,2013-07-12 09:54:00
6:54 AM,62.1,59.0,90,30.13,10.0,East,3.5,-,N/A,,Clear,90,2013-07-12 10:54:00
7:54 AM,64.9,59.0,81,30.15,10.0,Calm,Calm,-,N/A,,Clear,0,2013-07-12 11:54:00
8:54 AM,68.0,57.0,68,30.16,10.0,NNW,4.6,-,N/A,,Partly Cloudy,330,2013-07-12 12:54:00
9:54 AM,72.0,57.9,61,30.16,10.0,NNW,6.9,-,N/A,,Clear,330,2013-07-12 13:54:00
10:54 AM,73.9,60.1,62,30.16,10.0,NW,9.2,-,N/A,,Partly Cloudy,320,2013-07-12 14:54:00
11:54 AM,72.0,57.0,59,30.16,10.0,WNW,10.4,-,N/A,,Partly Cloudy,300,2013-07-12 15:54:00
12:54 PM,78.1,55.0,45,30.16,10.0,North,10.4,-,N/A,,Partly Cloudy,350,2013-07-12 16:54:00
1:54 PM,78.1,55.0,45,30.15,10.0,NNW,10.4,-,N/A,,Partly Cloudy,340,2013-07-12 17:54:00
2:54 PM,78.1,55.9,46,30.16,10.0,NW,10.4,-,N/A,,Partly Cloudy,310,2013-07-12 18:54:00
3:54 PM,79.0,57.0,47,30.15,10.0,North,8.1,-,N/A,,Partly Cloudy,360,2013-07-12 19:54:00
4:54 PM,78.1,55.9,46,30.15,10.0,NNW,9.2,-,N/A,,Partly Cloudy,330,2013-07-12 20:54:00
5:54 PM,78.1,57.0,48,30.14,10.0,North,8.1,-,N/A,,Partly Cloudy,350,2013-07-12 21:54:00
6:54 PM,77.0,55.9,48,30.14,10.0,NNW,5.8,-,N/A,,Clear,340,2013-07-12 22:54:00
7:54 PM,75.0,57.0,53,30.15,10.0,NNW,6.9,-,N/A,,Clear,330,2013-07-12 23:54:00
8:54 PM,72.0,55.9,57,30.16,10.0,NNW,5.8,-,N/A,,Clear,330,2013-07-13 00:54:00
9:54 PM,70.0,57.0,63,30.18,10.0,Calm,Calm,-,N/A,,Clear,0,2013-07-13 01:54:00
10:54 PM,66.9,59.0,76,30.19,10.0,Calm,Calm,-,N/A,,Clear,0,2013-07-13 02:54:00
11:54 PM,64.9,61.0,87,30.21,10.0,Calm,Calm,-,N/A,,Clear,0,2013-07-13 03:54:00